星链-1092 (STARLINK-1092 )

导读 | 豆包AI

STARLINK-1092是美国SpaceX星链星座中的卫星,于2020年1月7日发射升空,属于星链低轨互联网星座早期部署批次。星链星座旨在为全球提供高速低延迟宽带互联网覆盖,该卫星承担星座组网运营任务,在近地轨道运行,为后续大规模星链组网验证技术、拓展服务覆盖范围提供支撑。

Basic Information
目录编号:
44969
目录名称:
STARLINK-1092
国际标识:
2020-001BH
轨道中心:
EARTH
卫星名称:
星链-1092
卫星全名:
星链-1092 (STARLINK-1092 )
卫星状态:
已陨落 最后检测时间 2025-07-19
发射日期:
2020-01-07 UTC
国别 :
美国 (US)
星等 :
--
Orbit Information
数据来源 国际轨道数据
星历时间: 2025-07-19T21:27:42+0800
轨道信息已过期237天
半长轴: 6523.972km
偏心率: 0.0005178
轨道倾角: 53.018°
近地点辐角 294.886°
升交点赤经 187.661°
平近点角 169.175°
近地点: 142.458km
远地点: 149.216km
周期: 87.403分钟
每日圈数: 16.475352
Detailed Information
固有亮度:
5
最大亮度:
2.5
卫星平台:
Starlink V1.0
覆盖范围:
全球
运营商:
太空探索技术公司
运营商所在国:
美国
制造商(研发单位):
太空探索技术公司
制造商所在国:
美国
使用方式:
暂无
Satellite Introduction
星链(Starlink)计划是由太空探索技术公司(SpaceX)提出的一个巨型低轨卫星互联网星座项目,计划在2019年至2024年间在太空搭建由约1.2万颗卫星组成的“星链”网络,其中1584颗将部署在地球上空550千米处的近地轨道,并从2020年开始工作。该卫星仍在工作。